User: anonymous   Login
Location: Unspecified
(43.0000°N, 0.0000°E)
Time: 00:27:04
(UTC+00:00)
Language:

METEOR M2 - Orbit

View from above orbital plane
View from above orbital plane
View from above satellite
View from above satellite

Ground track
Ground track

The orbit data is extracted from the following two-line orbital elements,

1 40069U 14037A   19203.52555174 -.00000030  00000-0  58220-5 0  9999
2 40069  98.5484 247.7442 0006075 152.3301 207.8204 14.20663162261229
Epoch (UTC): 22 July 2019 12:36:47
Eccentricity: 0.0006075
inclination: 98.5484°
perigee height: 819 km
apogee height: 827 km
right ascension of ascending node: 247.7442°
argument of perigee: 152.3301°
revolutions per day: 14.20663162
mean anomaly at epoch: 207.8204°
orbit number at epoch: 26122

The dashed part of the orbit path shows where the satellite is in the earth's shadow,  

DLR